Tracking 25734 objects as of 27-May-2022
HD Live streaming from Space Station
objects crossing your sky now

STARLINK 1056

Track STARLINK 1056 now!
10-day predictions
STARLINK 1056 is classified as:


NORAD ID: 44761
Int'l Code: 2019-074BA
Perigee: 553.1 km
Apogee: 555.5 km
Inclination: 53.1 °
Period: 95.6 minutes
Semi major axis: 6925 km
RCS: Unknown
Launch date: November 11, 2019
Source: United States (US)
Launch site: AIR FORCE EASTERN TEST RANGE (AFETR)
aabbcc
Your satellite tracking list
Your tracking list is empty




NASA's NSSDC Master Catalog

Two Line Element Set (TLE):
1 44761U 19074BA  22146.19499723  .00003300  00000-0  24031-3 0  9991
2 44761  53.0574 317.3657 0001710  61.9291 298.1871 15.06407953139679
Source of the keplerian elements: AFSPC